EW6320 Weather Reports


Display with metric or nautical units.
time (UTC)temp
F
wind
direction
speed
MPH
gust
MPH
rain 1hr
in
rain 24hr
in
rain mn
in
humidity
%
barometer
mb
20260505080108 67 285 10.0 24.0 0.00 0.00 0.00 66 1006.9
20260505075609 67 275 9.0 21.0 0.00 0.00 0.00 66 1006.8
20260505075108 67 277 7.0 21.0 0.00 0.00 0.00 65 1007.3
20260505074606 67 267 3.0 10.0 0.00 0.00 0.00 65 1005.7
20260505074103 67 169 3.0 9.0 0.00 0.00 0.00 64 1005.5
20260505073601 67 223 2.0 9.0 0.00 0.00 0.00 65 1005.5
20260505073059 67 287 3.0 9.0 0.00 0.00 0.00 64 1005.6
20260505072558 67 307 3.0 10.0 0.00 0.00 0.00 65 1005.6
20260505072313 67 259 3.0 10.0 0.00 0.00 0.00 65 1005.7
20260505071548 67 217 2.0 10.0 0.00 0.00 0.00 65 1005.6
20260505071539 67 230 2.0 10.0 0.00 0.00 0.00 64 1005.7
20260505070548 67 182 2.0 10.0 0.00 0.00 0.00 64 1005.6
20260505070047 68 155 2.0 8.0 0.00 0.00 0.00 64 1005.6
20260505065541 68 240 3.0 9.0 0.00 0.06 0.00 64 1005.6
20260505065040 68 226 4.0 12.0 0.00 0.09 0.00 63 1005.6
20260505064535 68 182 3.0 12.0 0.00 0.09 0.00 63 1005.5
20260505064035 68 236 2.0 9.0 0.00 0.09 0.00 63 1005.4
20260505063534 68 248 3.0 9.0 0.00 0.09 0.00 63 1005.3
20260505063032 68 146 2.0 8.0 0.00 0.09 0.00 63 1005.3
20260505062528 68 178 2.0 8.0 0.00 0.09 0.00 63 1005.3
20260505062025 69 225 3.0 10.0 0.00 0.09 0.00 62 1005.3
20260505061519 69 202 3.0 10.0 0.00 0.09 0.00 62 1005.3
20260505061018 69 187 4.0 15.0 0.00 0.09 0.00 62 1005.3
20260505060741 69 131 4.0 15.0 0.00 0.09 0.00 62 1005.3
20260505060018 69 256 3.0 12.0 0.00 0.09 0.00 62 1005.3
20260505055515 69 155 4.0 12.0 0.00 0.09 0.00 62 1005.3
20260505055014 69 303 3.0 12.0 0.00 0.09 0.00 62 1005.2
20260505054513 69 284 4.0 15.0 0.00 0.09 0.00 62 1005.2
20260505054009 69 248 4.0 15.0 0.00 0.09 0.00 62 1005.1
20260505053507 69 198 3.0 11.0 0.00 0.09 0.00 62 1004.9
20260505053006 69 239 4.0 10.0 0.00 0.09 0.00 61 1004.9
20260505052728 69 178 4.0 12.0 0.00 0.09 0.00 61 1004.7
20260505052225 69 156 4.0 12.0 0.00 0.09 0.00 61 1004.6
20260505051720 69 178 3.0 12.0 0.00 0.09 0.00 61 1004.5
20260505050957 69 243 3.0 12.0 0.00 0.09 0.00 61 1004.6
20260505050455 69 161 4.0 10.0 0.00 0.09 0.00 61 1004.5
20260505041431 69 169 3.0 9.0 0.00 0.09 0.09 60 1004.4
20260505040934 69 221 3.0 8.0 0.00 0.09 0.09 60 1004.7
20260505040430 70 162 3.0 11.0 0.00 0.09 0.09 60 1004.7
20260505035926 70 164 3.0 11.0 0.00 0.09 0.09 60 1004.8
20260505035420 70 215 3.0 9.0 0.00 0.09 0.09 60 1004.7
20260505035141 70 223 2.0 9.0 0.00 0.09 0.09 60 1004.8
20260505034418 70 137 3.0 8.0 0.00 0.09 0.09 60 1004.9
20260505033917 70 189 3.0 11.0 0.00 0.09 0.09 60 1004.9
20260505033421 70 140 3.0 11.0 0.00 0.09 0.09 60 1004.9
20260505033131 70 257 5.0 12.0 0.00 0.09 0.09 60 1004.9
20260505032412 70 220 4.0 14.0 0.00 0.09 0.09 60 1004.8
20260505031915 70 193 3.0 14.0 0.00 0.09 0.09 60 1004.9
20260505031405 70 224 3.0 11.0 0.00 0.09 0.09 60 1004.7
20260505031124 70 161 4.0 11.0 0.00 0.09 0.09 59 1004.8
20260505030638 70 178 5.0 9.0 0.00 0.09 0.09 59 1004.8
20260505025859 70 228 5.0 10.0 0.00 0.09 0.09 59 1004.7
20260505025359 70 192 4.0 10.0 0.00 0.09 0.09 59 1004.7
20260505024903 70 140 3.0 9.0 0.00 0.09 0.09 59 1004.6
20260505024353 70 179 4.0 11.0 0.00 0.09 0.09 59 1004.6
20260505023853 71 161 4.0 11.0 0.00 0.09 0.09 59 1004.5
20260505023357 71 209 3.0 7.0 0.00 0.09 0.09 58 1004.5
20260505022847 71 156 3.0 7.0 0.00 0.09 0.09 58 1004.4
20260505022347 71 165 4.0 10.0 0.00 0.09 0.09 58 1004.3
20260505021604 71 255 3.0 12.0 0.00 0.09 0.09 57 1004.2
20260505020841 71 144 4.0 12.0 0.00 0.09 0.09 57 1004.2
20260505020345 71 174 4.0 12.0 0.00 0.09 0.09 57 1004.2
20260505015835 71 187 4.0 12.0 0.00 0.09 0.09 56 1004.2
20260505015335 71 180 4.0 11.0 0.00 0.09 0.09 56 1004.1
20260505014839 72 161 3.0 10.0 0.00 0.09 0.09 56 1004.1
20260505014329 72 153 3.0 10.0 0.00 0.09 0.09 55 1004.0
20260505014057 72 161 4.0 12.0 0.00 0.09 0.09 55 1003.9
20260505013332 72 199 5.0 12.0 0.00 0.09 0.09 54 1003.8
20260505012823 72 175 4.0 10.0 0.00 0.09 0.09 54 1003.7
20260505012323 73 145 3.0 9.0 0.00 0.09 0.09 54 1003.8
20260505012049 73 129 4.0 12.0 0.00 0.09 0.09 53 1003.6
20260505011544 73 183 5.0 12.0 0.00 0.09 0.09 53 1003.5
20260505011047 73 129 4.0 11.0 0.00 0.09 0.09 53 1003.5
20260505010321 73 155 4.0 10.0 0.00 0.09 0.09 52 1003.4
20260505005821 74 176 5.0 11.0 0.00 0.09 0.09 51 1003.3
20260505005325 74 120 5.0 12.0 0.00 0.09 0.09 51 1003.4
20260505004819 74 190 5.0 14.0 0.00 0.09 0.09 51 1003.3
20260505004319 75 161 4.0 14.0 0.00 0.09 0.09 50 1003.3
20260505003819 75 146 4.0 10.0 0.00 0.09 0.09 50 1003.3
20260505003321 75 165 4.0 14.0 0.00 0.09 0.09 49 1003.3
20260505003034 75 117 4.0 14.0 0.00 0.09 0.09 49 1003.2
20260505002310 75 201 5.0 14.0 0.00 0.09 0.09 48 1003.2
20260505001813 75 159 6.0 18.0 0.00 0.09 0.09 48 1003.2
20260505001312 75 201 6.0 18.0 0.00 0.09 0.09 48 1003.0
20260505000811 75 219 5.0 16.0 0.00 0.09 0.09 48 1003.0
20260505000315 75 142 4.0 16.0 0.00 0.09 0.09 49 1003.1
20260504235815 75 208 5.0 13.0 0.00 0.09 0.09 49 1003.0
20260504235305 75 151 5.0 13.0 0.00 0.09 0.09 49 1003.1
20260504235025 75 157 5.0 14.0 0.00 0.09 0.09 49 1003.2
20260504234308 75 67 5.0 14.0 0.00 0.09 0.09 49 1002.9
20260504234025 76 153 6.0 14.0 0.00 0.09 0.09 48 1002.8
20260504233523 76 163 6.0 15.0 0.00 0.09 0.09 48 1003.1
20260504232805 76 134 5.0 15.0 0.00 0.09 0.09 48 1003.2
20260504232301 76 172 5.0 17.0 0.00 0.09 0.09 47 1003.2
20260504231801 76 157 5.0 17.0 0.00 0.09 0.09 47 1003.3
20260504231528 76 202 5.0 13.0 0.00 0.09 0.09 47 1003.4
20260504231241 76 100 6.0 17.0 0.00 0.09 0.09 47 1003.6
20260504230300 76 174 7.0 17.0 0.00 0.09 0.09 47 1003.5
20260504230017 77 159 7.0 15.0 0.00 0.09 0.09 46 1003.5
20260504225254 77 176 6.0 21.0 0.00 0.09 0.09 46 1003.5
20260504224752 77 178 7.0 21.0 0.00 0.09 0.09 46 1003.6
20260504224508 77 148 8.0 22.0 0.00 0.09 0.09 46 1003.5
20260504223751 77 238 7.0 22.0 0.00 0.09 0.09 45 1003.7
20260504223245 77 167 8.0 24.0 0.00 0.09 0.09 45 1003.7
20260504222745 77 167 10.0 24.0 0.00 0.09 0.09 46 1003.8
20260504222245 76 112 9.0 21.0 0.00 0.09 0.09 45 1003.6
20260504221743 76 144 9.0 19.0 0.00 0.09 0.09 47 1003.5
20260504221242 76 152 8.0 17.0 0.00 0.09 0.09 46 1003.5
20260504221015 76 169 7.0 15.0 0.00 0.09 0.09 47 1003.7
20260504220239 76 167 7.0 16.0 0.00 0.09 0.09 47 1003.6
20260504215739 76 145 6.0 16.0 0.00 0.09 0.09 48 1003.6
20260504215235 75 202 6.0 12.0 0.00 0.09 0.09 51 1003.7
20260504214734 75 153 7.0 15.0 0.00 0.09 0.09 50 1003.2
20260504214234 74 142 7.0 15.0 0.00 0.09 0.09 52 1002.9
20260504213735 73 146 8.0 14.0 0.00 0.09 0.09 53 1003.0
20260504213230 71 144 8.0 14.0 0.00 0.09 0.09 53 1003.1
20260504212730 71 135 8.0 19.0 0.00 0.09 0.09 54 1003.1
20260504212226 71 177 9.0 19.0 0.00 0.09 0.09 56 1003.1
20260504211727 71 136 9.0 20.0 0.00 0.09 0.09 56 1003.5
20260504211226 71 150 8.0 20.0 0.00 0.09 0.09 56 1004.5
20260504210727 72 155 7.0 16.0 0.00 0.09 0.09 55 1005.0
20260504210222 72 166 8.0 16.0 0.00 0.09 0.09 55 1005.2
20260504205946 71 168 9.0 17.0 0.00 0.09 0.09 57 1005.0
20260504205219 69 169 8.0 17.0 0.00 0.09 0.09 61 1004.8
20260504204719 68 147 6.0 12.0 0.00 0.09 0.09 67 1004.8
20260504204443 67 144 5.0 8.0 0.00 0.09 0.09 72 1005.2
20260504203945 67 131 3.0 7.0 0.00 0.09 0.09 73 1005.6
20260504203219 67 134 2.0 5.0 0.00 0.09 0.09 73 1005.9
20260504202718 67 123 1.0 3.0 0.00 0.09 0.09 72 1006.1
20260504202219 68 109 0.0 3.0 0.00 0.09 0.09 70 1006.4
20260504201718 68 347 0.0 3.0 0.00 0.09 0.09 70 1006.7
20260504201212 68 313 1.0 3.0 0.00 0.09 0.09 69 1007.0
20260504200713 68 313 1.0 4.0 0.00 0.09 0.09 69 1007.1
20260504200212 69 297 1.0 5.0 0.00 0.09 0.09 68 1007.0
20260504195935 69 13 1.0 5.0 0.00 0.09 0.09 69 1006.9
20260504195646 69 303 1.0 3.0 0.00 0.09 0.09 69 1006.9
20260504194706 69 127 0.0 3.0 0.00 0.09 0.09 71 1006.6
20260504194422 69 127 0.0 1.0 0.00 0.09 0.09 69 1006.3
20260504193923 69 127 0.0 1.0 0.00 0.09 0.09 70 1006.3
20260504193208 69 127 0.0 1.0 0.00 0.09 0.09 68 1006.5
20260504192704 69 127 0.0 1.0 0.00 0.09 0.09 68 1006.4
20260504192425 69 127 0.0 0.0 0.00 0.09 0.09 67 1006.4
20260504191925 70 127 0.0 2.0 0.00 0.09 0.09 66 1006.2
20260504191158 70 127 0.0 2.0 0.00 0.09 0.09 67 1006.2
20260504190702 71 180 0.0 1.0 0.00 0.09 0.09 65 1006.2
20260504190415 71 181 0.0 1.0 0.00 0.09 0.09 61 1006.4
20260504185654 71 181 0.0 0.0 0.00 0.09 0.09 62 1006.3
20260504185148 72 181 0.0 2.0 0.00 0.09 0.09 62 1006.2
20260504184648 72 181 1.0 4.0 0.00 0.09 0.09 61 1006.1
20260504184147 71 157 1.0 5.0 0.00 0.09 0.09 61 1005.9
20260504183652 71 159 1.0 5.0 0.00 0.09 0.09 60 1005.7
20260504183148 71 160 2.0 5.0 0.00 0.09 0.09 60 1005.7
20260504182647 71 168 2.0 10.0 0.00 0.09 0.09 60 1005.6
20260504182403 71 124 3.0 10.0 0.00 0.09 0.09 59 1005.8
20260504181641 71 206 3.0 8.0 0.00 0.09 0.09 60 1005.7
20260504181139 71 136 4.0 10.0 0.00 0.09 0.09 61 1005.7
20260504180901 71 165 3.0 10.0 0.00 0.09 0.09 61 1005.8
20260504180138 71 167 2.0 8.0 0.00 0.09 0.09 61 1005.8
20260504175638 71 155 3.0 8.0 0.00 0.09 0.09 61 1006.1
20260504175138 71 151 3.0 8.0 0.00 0.09 0.09 61 1006.0
20260504174634 71 155 3.0 8.0 0.00 0.09 0.09 61 1006.1
20260504174133 71 201 2.0 9.0 0.00 0.09 0.09 61 1006.3
20260504173632 71 176 2.0 10.0 0.00 0.09 0.09 60 1006.3
20260504173136 71 167 3.0 10.0 0.00 0.09 0.09 60 1006.4
20260504172850 71 248 4.0 11.0 0.00 0.09 0.09 60 1006.5
20260504172348 71 150 4.0 11.0 0.00 0.09 0.09 60 1006.5
20260504171628 71 126 3.0 11.0 0.00 0.09 0.09 59 1006.6
20260504171128 72 211 4.0 11.0 0.00 0.09 0.09 59 1006.4
20260504170631 72 150 4.0 11.0 0.00 0.09 0.09 58 1006.6
20260504170123 72 173 2.0 11.0 0.00 0.09 0.09 57 1007.0
20260504151044 72 274 3.0 10.0 0.00 0.09 0.09 59 1008.1
20260504150759 72 189 3.0 10.0 0.00 0.09 0.09 61 1008.1
20260504150257 71 285 4.0 10.0 0.00 0.09 0.09 61 1008.1
20260504141016 68 202 2.0 8.0 0.00 0.09 0.09 64 1008.2
20260504140516 68 248 2.0 7.0 0.00 0.09 0.09 64 1008.2
20260504140245 68 155 2.0 10.0 0.00 0.09 0.09 65 1008.3
20260504130729 63 141 2.0 8.0 0.00 0.09 0.09 71 1008.7
20260504120213 60 161 3.0 8.0 0.00 0.09 0.09 76 1009.0
20260504110446 58 165 2.0 5.0 0.00 0.09 0.09 80 1008.9
20260504110206 58 151 2.0 7.0 0.00 0.09 0.09 81 1008.9
20260504100431 56 117 1.0 3.0 0.00 0.09 0.09 88 1009.0
20260504100154 56 137 1.0 3.0 0.00 0.09 0.09 88 1009.2
20260504090134 58 138 1.0 3.0 0.00 0.09 0.09 81 1009.1
20260504081851 57 152 2.0 4.0 0.00 0.09 0.09 87 1009.3
20260504081352 56 157 1.0 3.0 0.00 0.09 0.09 88 1009.4
20260504080851 56 137 0.0 2.0 0.00 0.09 0.09 88 1009.6
20260504080351 57 109 0.0 2.0 0.00 0.09 0.09 88 1009.9